Location: Newark
(3.0500°N, 36.0167°E)
Time: 04:25:00
(UTC+00:00)

Vanguard 2 - Visible Passes

Search period start: 21 August 2019 00:00
Search period end: 31 August 2019 00:00
Orbit: 553 x 2938 km, 32.9° (Epoch: 20 August)

Date Brightness Start Highest point End Pass type
(mag) Time Alt. Az. Time Alt. Az. Time Alt. Az.
21 Aug 10.8 15:40:24 10° NNW 15:53:27 39° NNE 16:09:26 10° E visible
21 Aug 10.2 17:50:01 10° NW 18:06:59 86° NE 18:12:09 58° ESE visible
21 Aug 11.1 20:03:56 10° W 20:13:34 33° WSW 20:13:34 33° WSW visible
22 Aug 10.6 15:58:04 10° NW 16:11:56 49° NE 16:27:49 13° ESE visible
22 Aug 10.2 18:08:16 10° WNW 18:25:16 78° SW 18:29:14 63° SSE visible
22 Aug 11.4 20:23:44 10° W 20:30:40 23° WSW 20:30:40 23° WSW visible
23 Aug 10.4 16:15:48 10° NW 16:30:17 62° NE 16:44:58 18° ESE visible
23 Aug 10.3 18:26:47 10° WNW 18:43:35 63° SW 18:46:24 58° S visible
23 Aug 11.7 20:44:14 10° W 20:47:50 16° WSW 20:47:50 16° WSW visible
24 Aug 10.3 16:33:40 10° NW 16:48:33 77° NE 17:02:11 23° ESE visible
24 Aug 10.6 18:45:39 10° WNW 19:01:58 50° SW 19:03:37 49° SSW visible
25 Aug 10.2 16:51:43 10° NW 17:06:50 87° SW 17:19:27 26° SE visible
25 Aug 10.9 19:04:58 10° W 19:20:28 39° SW 19:20:54 39° SSW visible
26 Aug 10.4 17:10:00 10° WNW 17:25:09 71° SW 17:36:46 29° SE visible
26 Aug 11.2 19:24:50 10° W 19:38:13 30° SW 19:38:13 30° SW visible
27 Aug 10.6 17:28:33 10° WNW 17:43:33 57° SW 17:54:07 29° SSE visible
27 Aug 11.4 19:45:23 10° WSW 19:55:33 23° SW 19:55:33 23° SW visible
28 Aug 10.1 02:39:23 10° SSW 02:43:29 16° SSE 02:46:46 10° ESE visible
28 Aug 10.2 15:36:07 10° NW 15:48:49 83° NE 16:06:46 10° ESE visible
28 Aug 10.8 17:47:28 10° W 18:02:06 45° SSW 18:11:28 28° SSE visible
28 Aug 11.7 20:06:44 10° WSW 20:12:55 17° SW 20:12:55 17° SW visible
29 Aug 9.5 02:56:14 10° SSW 03:02:02 25° SSE 03:06:11 10° E visible
29 Aug 10.3 15:54:11 10° WNW 16:07:04 80° SW 16:25:04 10° SE visible
29 Aug 11.1 18:06:51 10° W 18:20:51 35° SSW 18:28:50 26° S visible
29 Aug 11.9 20:28:55 10° SW 20:30:17 11° SW 20:30:17 11° SW visible
30 Aug 10.7 01:07:40 12° S 01:09:17 12° SSE 01:12:17 10° SE visible
30 Aug 8.8 03:13:40 10° SW 03:20:24 41° SSE 03:24:53 10° E visible
30 Aug 10.5 16:12:30 10° WNW 16:25:25 63° SW 16:43:07 10° SE visible
30 Aug 11.3 18:26:47 10° W 18:39:49 28° SSW 18:46:10 23° S visible
